This is the latest recevied weather packets stored in our database for station/object K1LVA. If no packets are shown the sender has not sent any weather packets the latest 10 day(s).
| Time | Temp. | Humidity | Pressure | Rain* | Wind** | Luminosity | Snow |
|---|---|---|---|---|---|---|---|
| 1777505449 | 25° C | 74% | 1008.9 hPa | 0 mm | - | 18 W/m² | - |
| 1777505145 | 25.56° C | 72% | 1009.1 hPa | 0 mm | - | 22 W/m² | - |
| 1777504842 | 26.11° C | 71% | 1009 hPa | 0 mm | - | 24 W/m² | - |
| 1777504539 | 26.11° C | 69% | 1009.2 hPa | 0 mm | - | 30 W/m² | - |
| 1777504235 | 26.67° C | 69% | 1008.9 hPa | 0 mm | - | 40 W/m² | - |
| 1777503931 | 26.67° C | 67% | 1009 hPa | 0 mm | - | 55 W/m² | - |
| 1777503628 | 26.67° C | 67% | 1009.1 hPa | 0 mm | - | 70 W/m² | - |
| 1777503325 | 26.67° C | 66% | 1008.9 hPa | 0 mm | - | 83 W/m² | - |
| 1777503021 | 26.67° C | 67% | 1008.9 hPa | 0 mm | - | 171 W/m² | - |
| 1777502718 | 26.67° C | 68% | 1008.8 hPa | 0 mm | - | 148 W/m² | - |
| 1777502415 | 26.67° C | 67% | 1009.2 hPa | 0 mm | - | 35 W/m² | - |
| 1777502112 | 27.22° C | 66% | 1009.1 hPa | 0 mm | - | 83 W/m² | - |
| 1777501810 | 27.22° C | 65% | 1009.2 hPa | 0 mm | - | 80 W/m² | - |
| 1777501506 | 27.78° C | 64% | 1009.2 hPa | 0 mm | - | 84 W/m² | - |
| 1777501203 | 27.22° C | 64% | 1009.3 hPa | 0 mm | - | 201 W/m² | - |
| 1777500901 | 27.22° C | 65% | 1009.2 hPa | 0 mm | - | 91 W/m² | - |
| 1777500598 | 27.78° C | 64% | 1009.3 hPa | 0 mm | - | 132 W/m² | - |
| 1777500294 | 27.22° C | 64% | 1009.4 hPa | 0 mm | - | 94 W/m² | - |
| 1777499991 | 27.78° C | 63% | 1009.3 hPa | 0 mm | - | 103 W/m² | - |
| 1777499688 | 27.78° C | 63% | 1009.4 hPa | 0 mm | - | 95 W/m² | - |
| 1777499384 | 27.78° C | 62% | 1009.1 hPa | 0 mm | - | 307 W/m² | - |
| 1777499083 | 27.78° C | 62% | 1009.5 hPa | 0 mm | - | 319 W/m² | - |
| 1777498779 | 27.78° C | 63% | 1009.6 hPa | 0 mm | - | 349 W/m² | - |
| 1777498475 | 27.22° C | 64% | 1009.5 hPa | 0 mm | - | 300 W/m² | - |
| 1777498172 | 26.67° C | 66% | 1009.5 hPa | 0 mm | - | 216 W/m² | - |
* Rain latest hour (hover to see other rain measurements)
** Current wind speed in m/s (hover to see current wind gust speed)